• In Hungary
  • List of Countries
  • For 7 days
  • Water Temperature
  • Satellite Maps
  • Weather Map
  • News
  • Weather Widgets
  • user-avatar
    Login

    Hourly Weather San José Costa Rica

    Today, 24 June, Sunday

    Time Temperature Precipitation Wind Pressure Humidity
    00:00 +22°C° 0.1 mm 1 mps 695 mmHg 88%
    01:00 +22°C° 0.1 mm 1 mps 695 mmHg 88%
    02:00 +22°C° 0.1 mm 1 mps 694 mmHg 89%
    03:00 +22°C° 0.1 mm 1 mps 694 mmHg 89%
    04:00 +22°C° 0 mm 1 mps 694 mmHg 88%
    05:00 +22°C° 0 mm 1 mps 694 mmHg 87%
    06:00 +22°C° 0 mm 1 mps 695 mmHg 87%
    07:00 +25°C° 0 mm 1 mps 695 mmHg 76%
    08:00 +27°C° 0 mm 1 mps 696 mmHg 66%
    09:00 +30°C° 0 mm 1 mps 696 mmHg 55%
    10:00 +31°C° 0 mm 1 mps 696 mmHg 51%
    11:00 +32°C° 0 mm 2 mps 696 mmHg 47%
    12:00 +34°C° 0 mm 2 mps 696 mmHg 43%
    13:00 +34°C° 0 mm 2 mps 695 mmHg 44%
    14:00 +34°C° 0 mm 2 mps 695 mmHg 45%
    15:00 +32°C° 0 mm 2 mps 694 mmHg 46%
    16:00 +30°C° 0 mm 2 mps 694 mmHg 54%
    17:00 +29°C° 0 mm 2 mps 694 mmHg 62%
    18:00 +27°C° 0 mm 1 mps 694 mmHg 70%
    19:00 +26°C° 0 mm 1 mps 694 mmHg 74%
    20:00 +24°C° 0 mm 1 mps 694 mmHg 79%
    21:00 +23°C° 0 mm 1 mps 695 mmHg 83%
    22:00 +23°C° 0.2 mm 1 mps 695 mmHg 83%
    23:00 +23°C° 0.2 mm 1 mps 695 mmHg 83%

    Tomorrow, 25 June, Monday

    Time Temperature Precipitation Wind Pressure Humidity
    00:00 +23°C° 0.2 mm 1 mps 695 mmHg 83%
    01:00 +22°C° 0.1 mm 1 mps 695 mmHg 84%
    02:00 +22°C° 0.1 mm 1 mps 694 mmHg 84%
    03:00 +22°C° 0.1 mm 1 mps 694 mmHg 85%
    04:00 +22°C° 0 mm 1 mps 694 mmHg 85%
    05:00 +22°C° 0 mm 1 mps 694 mmHg 84%
    06:00 +22°C° 0 mm 1 mps 694 mmHg 84%
    07:00 +24°C° 0 mm 1 mps 695 mmHg 73%
    08:00 +27°C° 0 mm 1 mps 696 mmHg 62%
    09:00 +30°C° 0 mm 1 mps 696 mmHg 52%
    10:00 +31°C° 0 mm 1 mps 696 mmHg 48%
    11:00 +32°C° 0 mm 2 mps 696 mmHg 45%
    12:00 +34°C° 0 mm 2 mps 696 mmHg 42%
    13:00 +32°C° 0 mm 2 mps 696 mmHg 44%
    14:00 +32°C° 0 mm 2 mps 695 mmHg 47%
    15:00 +31°C° 0 mm 3 mps 694 mmHg 49%
    16:00 +30°C° 0 mm 2 mps 694 mmHg 56%
    17:00 +28°C° 0 mm 2 mps 694 mmHg 63%
    18:00 +26°C° 0 mm 1 mps 694 mmHg 70%
    19:00 +25°C° 0.1 mm 1 mps 694 mmHg 75%
    20:00 +22°C° 0.1 mm 0 mps 695 mmHg 79%
    21:00 +21°C° 0.1 mm 0 mps 695 mmHg 84%
    22:00 +20°C° 0.1 mm 0 mps 695 mmHg 84%
    23:00 +22°C° 0.1 mm 1 mps 695 mmHg 84%

    Day after tomorrow, 26 June, Tuesday

    Time Temperature Precipitation Wind Pressure Humidity
    00:00 +22°C° 0.1 mm 1 mps 695 mmHg 84%
    01:00 +22°C° 0.1 mm 1 mps 695 mmHg 84%
    02:00 +22°C° 0.1 mm 1 mps 694 mmHg 84%
    03:00 +21°C° 0.1 mm 1 mps 694 mmHg 84%
    04:00 +21°C° 0.2 mm 1 mps 694 mmHg 83%
    05:00 +22°C° 0.2 mm 1 mps 694 mmHg 82%
    06:00 +22°C° 0.2 mm 1 mps 694 mmHg 82%
    07:00 +24°C° 0 mm 1 mps 695 mmHg 74%
    08:00 +26°C° 0 mm 1 mps 696 mmHg 65%
    09:00 +28°C° 0 mm 1 mps 696 mmHg 57%
    10:00 +29°C° 0 mm 1 mps 696 mmHg 52%
    11:00 +31°C° 0 mm 1 mps 696 mmHg 47%
    12:00 +32°C° 0 mm 1 mps 696 mmHg 41%
    13:00 +32°C° 0 mm 1 mps 696 mmHg 43%
    14:00 +31°C° 0 mm 2 mps 695 mmHg 45%
    15:00 +31°C° 0 mm 2 mps 694 mmHg 47%
    16:00 +29°C° 0.2 mm 2 mps 694 mmHg 55%
    17:00 +27°C° 0.2 mm 1 mps 694 mmHg 63%
    18:00 +26°C° 0.2 mm 1 mps 694 mmHg 71%
    19:00 +25°C° 0.1 mm 1 mps 695 mmHg 74%
    20:00 +24°C° 0.1 mm 1 mps 695 mmHg 77%
    21:00 +23°C° 0.1 mm 1 mps 696 mmHg 80%
    22:00 +23°C° 0 mm 1 mps 695 mmHg 80%
    23:00 +23°C° 0 mm 1 mps 695 mmHg 81%

    27 June, Wednesday

    Time Temperature Precipitation Wind Pressure Humidity
    00:00 +21°C° 0 mm 2 mps 695 mmHg 81%
    01:00 +21°C° 0.1 mm 2 mps 695 mmHg 81%
    02:00 +21°C° 0.1 mm 2 mps 694 mmHg 81%
    03:00 +20°C° 0.1 mm 2 mps 694 mmHg 81%
    04:00 +21°C° 0 mm 2 mps 694 mmHg 79%
    05:00 +21°C° 0 mm 2 mps 694 mmHg 77%
    06:00 +21°C° 0 mm 2 mps 695 mmHg 75%
    07:00 +24°C° 0 mm 1 mps 695 mmHg 66%
    08:00 +27°C° 0 mm 1 mps 696 mmHg 57%
    09:00 +29°C° 0 mm 1 mps 697 mmHg 48%
    10:00 +30°C° 0 mm 1 mps 697 mmHg 45%
    11:00 +31°C° 0 mm 2 mps 696 mmHg 41%
    12:00 +32°C° 0 mm 2 mps 696 mmHg 37%
    13:00 +31°C° 0 mm 2 mps 696 mmHg 41%
    14:00 +30°C° 0 mm 1 mps 695 mmHg 44%
    15:00 +29°C° 0 mm 1 mps 694 mmHg 48%
    16:00 +28°C° 0 mm 1 mps 694 mmHg 53%
    17:00 +27°C° 0 mm 1 mps 694 mmHg 59%
    18:00 +26°C° 0 mm 1 mps 694 mmHg 65%
    19:00 +25°C° 0.3 mm 1 mps 695 mmHg 71%
    20:00 +24°C° 0.3 mm 1 mps 695 mmHg 77%
    21:00 +23°C° 0.3 mm 1 mps 695 mmHg 83%
    22:00 +22°C° 0.3 mm 1 mps 695 mmHg 86%
    23:00 +22°C° 0.3 mm 1 mps 695 mmHg 88%

    28 June, Thursday

    Time Temperature Precipitation Wind Pressure Humidity
    00:00 +21°C° 0.3 mm 1 mps 695 mmHg 90%
    01:00 +21°C° 0.1 mm 1 mps 694 mmHg 90%
    02:00 +21°C° 0.1 mm 1 mps 694 mmHg 90%
    03:00 +21°C° 0.1 mm 1 mps 694 mmHg 90%
    04:00 +20°C° 0 mm 2 mps 694 mmHg 89%
    05:00 +20°C° 0 mm 2 mps 694 mmHg 87%
    06:00 +20°C° 0 mm 2 mps 694 mmHg 86%
    07:00 +23°C° 0 mm 2 mps 694 mmHg 76%
    08:00 +25°C° 0 mm 2 mps 695 mmHg 67%
    09:00 +27°C° 0 mm 2 mps 696 mmHg 57%
    10:00 +29°C° 0 mm 2 mps 696 mmHg 53%
    11:00 +30°C° 0 mm 2 mps 695 mmHg 49%
    12:00 +31°C° 0 mm 2 mps 695 mmHg 45%
    13:00 +30°C° 0.5 mm 2 mps 695 mmHg 53%
    14:00 +28°C° 0.5 mm 2 mps 694 mmHg 62%
    15:00 +27°C° 0.5 mm 1 mps 693 mmHg 70%
    16:00 +25°C° 2.2 mm 1 mps 694 mmHg 75%
    17:00 +24°C° 2.2 mm 1 mps 694 mmHg 81%
    18:00 +23°C° 2.2 mm 1 mps 694 mmHg 87%
    19:00 +23°C° 1.3 mm 1 mps 694 mmHg 88%
    20:00 +21°C° 1.3 mm 2 mps 695 mmHg 89%
    21:00 +21°C° 1.3 mm 2 mps 695 mmHg 90%
    22:00 +21°C° 0.2 mm 2 mps 695 mmHg 90%
    23:00 +21°C° 0.2 mm 2 mps 695 mmHg 89%

    29 June, Friday

    Time Temperature Precipitation Wind Pressure Humidity
    00:00 +21°C° 0.2 mm 2 mps 695 mmHg 88%
    01:00 +20°C° 0 mm 2 mps 695 mmHg 88%
    02:00 +20°C° 0 mm 2 mps 694 mmHg 88%
    03:00 +20°C° 0 mm 2 mps 694 mmHg 88%
    04:00 +20°C° 0 mm 2 mps 694 mmHg 88%
    05:00 +20°C° 0 mm 2 mps 694 mmHg 88%
    06:00 +20°C° 0 mm 2 mps 694 mmHg 88%
    07:00 +23°C° 0 mm 2 mps 695 mmHg 77%
    08:00 +26°C° 0 mm 1 mps 696 mmHg 66%
    09:00 +28°C° 0 mm 1 mps 696 mmHg 55%
    10:00 +30°C° 0 mm 2 mps 696 mmHg 50%
    11:00 +31°C° 0 mm 2 mps 696 mmHg 44%
    12:00 +33°C° 0 mm 3 mps 696 mmHg 39%
    13:00 +33°C° 0 mm 3 mps 695 mmHg 41%
    14:00 +31°C° 0 mm 3 mps 695 mmHg 42%
    15:00 +31°C° 0 mm 3 mps 694 mmHg 44%
    16:00 +30°C° 0 mm 3 mps 694 mmHg 49%
    17:00 +28°C° 0 mm 2 mps 694 mmHg 55%
    18:00 +27°C° 0 mm 2 mps 694 mmHg 61%
    19:00 +26°C° 0.4 mm 2 mps 694 mmHg 67%
    20:00 +24°C° 0.4 mm 1 mps 694 mmHg 73%
    21:00 +23°C° 0.4 mm 1 mps 695 mmHg 79%
    22:00 +21°C° 0.2 mm 2 mps 695 mmHg 81%
    23:00 +21°C° 0.2 mm 2 mps 695 mmHg 82%
    Show more